Fairfield, CA

8:06 PM PDT on March 24, 2017 (GMT -0700)
Travis Air Force Base

Weather History for KSUU - August, 2013

Change the Weather History Date:

Friday, August 30, 2013

  Actual Average Record
Temperature  
Mean Temperature 78 °F -  
Max Temperature 96 °F 85 °F 102 °F (2007)
Min Temperature 62 °F 56 °F 52 °F (2010)
Cooling Degree Days 14    
Growing Degree Days 28 (Base 50)    
Moisture  
Dew Point 59 °F    
Average Humidity 59    
Maximum Humidity 95    
Minimum Humidity 23    
Precipitation  
Precipitation 0.00 in - - ()
Sea Level Pressure  
Sea Level Pressure 29.96 in    
Wind  
Wind Speed 13 mph (SW)    
Max Wind Speed 20 mph    
Max Gust Speed -    
Visibility 10 miles    
Events      
Averages and records for this station are not official NWS values.
T = Trace of Precipitation, MM = Missing Value Source: NWS Daily Summary

Daily Weather History Graph

Daily Weather History Graph

Search for Another Location

Airport or City:

Trip Planner

Search our weather history database for the weather conditions in past years. The results will help you decide how hot, cold, wet, or windy it might be!

Date:

Astronomy

Aug. 30, 2013 Rise Set
Actual Time 6:35 AM PDT 7:39 PM PDT
Civil Twilight 6:08 AM PDT 8:06 PM PDT
Nautical Twilight 5:36 AM PDT 8:39 PM PDT
Astronomical Twilight 5:02 AM PDT 9:12 PM PDT
Moon 1:21 AM PDT (8/30) 3:57 PM PDT (8/30)
Length of Visible Light 13h 58m
Length of Day
13h 04m
Waning Crescent, 28% of the Moon is Illuminated
Aug 30
Waning Crescent
Sep 5
New
Sep 12
First Quarter
Sep 19
Full
Sep 26
Last Quarter

Hourly Weather History & Observations

Time (PDT) Temp. Heat Index Dew Point Humidity Pressure Visibility Wind Dir Wind Speed Gust Speed Precip Events Conditions
12:58 AM 65.8 °F - 62.2 °F 88% 29.99 in 10.0 mi SW 15.0 mph - N/A   Clear
1:58 AM 65.7 °F - 63.0 °F 91% 29.98 in 10.0 mi SW 19.6 mph - N/A   Clear
2:58 AM 65.8 °F - 62.6 °F 89% 29.98 in 10.0 mi SW 16.1 mph - N/A   Clear
3:58 AM 65.1 °F - 62.4 °F 91% 29.97 in 10.0 mi SW 16.1 mph - N/A   Clear
4:58 AM 64.2 °F - 62.8 °F 95% 29.97 in 10.0 mi SW 13.8 mph - N/A   Clear
5:58 AM 63.5 °F - 61.5 °F 93% 29.99 in 10.0 mi SW 10.4 mph - N/A   Clear
6:58 AM 62.8 °F - 61.3 °F 95% 30.01 in 10.0 mi SW 10.4 mph - N/A   Clear
7:58 AM 66.2 °F - 62.4 °F 88% 30.02 in 10.0 mi SW 11.5 mph - N/A   Clear
8:58 AM 71.8 °F - 61.7 °F 70% 30.02 in 10.0 mi SW 10.4 mph - N/A   Clear
9:58 AM 77.0 °F - 61.3 °F 58% 30.03 in 10.0 mi WSW 9.2 mph - N/A   Clear
10:58 AM 81.7 °F 82.2 °F 60.4 °F 48% 30.02 in 10.0 mi Variable 4.6 mph - N/A   Clear
11:58 AM 85.3 °F 85.2 °F 60.4 °F 43% 30.02 in 10.0 mi NNW 3.5 mph - N/A   Clear
12:58 PM 88.7 °F 88.3 °F 59.9 °F 38% 29.99 in 10.0 mi North 5.8 mph - N/A   Clear
1:58 PM 92.8 °F 90.9 °F 55.4 °F 28% 29.97 in 10.0 mi Variable 3.5 mph - N/A   Clear
2:58 PM 94.3 °F 92.1 °F 54.9 °F 26% 29.94 in 10.0 mi SW 8.1 mph - N/A   Clear
3:58 PM 95.5 °F - 52.3 °F 23% 29.92 in 10.0 mi SW 10.4 mph - N/A   Clear
4:58 PM 95.2 °F 92.7 °F 53.2 °F 24% 29.90 in 10.0 mi WSW 12.7 mph - N/A   Clear
5:58 PM 92.5 °F 90.4 °F 55.2 °F 28% 29.88 in 10.0 mi WSW 16.1 mph - N/A   Clear
6:58 PM 88.7 °F 86.5 °F 53.2 °F 30% 29.87 in 10.0 mi WSW 18.4 mph - N/A   Clear
7:58 PM 80.2 °F 80.5 °F 56.8 °F 45% 29.88 in 10.0 mi SW 15.0 mph - N/A   Clear
8:58 PM 75.6 °F - 55.0 °F 49% 29.89 in 10.0 mi SSW 15.0 mph - N/A   Clear
9:58 PM 73.4 °F - 55.0 °F 52% 29.90 in 10.0 mi SW 15.0 mph - N/A   Clear
10:58 PM 71.6 °F - 55.6 °F 57% 29.90 in 10.0 mi SW 18.4 mph - N/A   Clear
11:58 PM 69.4 °F - 56.7 °F 64% 29.90 in 10.0 mi SW 19.6 mph - N/A   Clear